sat.trackr.live / text

‹ back to catalog

STARLINK-5211

NORAD 54086 · 2022-136AM

PAYLOAD ACTIVE UNKNOWN

§ Identity

Operator
Country
US
Launch date
2022-10-20
Launch site
AFETR
Launch vehicle
Mass (kg)
RCS (m²)

Purposes: comms

External: N2YO · Heavens-Above · Gunter

§ Orbital elements

Epoch: 2026-09-20T10:26:06.859968Z

Period
93.85 min
Inclination
53.1622°
Eccentricity
0.0001350
Mean motion
15.34378250 rev/d
Perigee alt
461.8 km
Apogee alt
463.7 km
Semi-major
6,840.9 km
B*
-1.4957e-4
RAAN
155.8648°
Arg perigee
81.7488°
Mean anomaly
278.3668°
Rev number
21,671

§ Raw data

STARLINK-52111 54086U 22136AM  26263.43480162 -.00005423  00000+0 -14957-3 0  99982 54086  53.1622 155.8648 0001350  81.7488 278.3668 15.34378250216711

JSON: /api/v1/satellites/54086 · /tle

For live sub-satellite position, see the globe view (requires WebGL).

§ Visibility from observer

Set your observer location to see the next 7 days of passes ≥ 10°. The values pass through the URL so the page stays shareable.

No JS? Fill the form by hand. The geolocation button needs JavaScript.